Weather History for Newberry, MI

Change the Weather History Date:

Thursday, March 8, 2012

  Actual Average Record
Temperature  
Mean Temperature 30 °F -  
Max Temperature 35 °F 32 °F 48 °F (1968)
Min Temperature 24 °F 12 °F -14 °F (1943)
Degree Days  
Heating Degree Days 36    
Moisture  
Dew Point 23 °F    
Average Humidity 82    
Maximum Humidity 100    
Minimum Humidity 64    
Precipitation  
Precipitation 0.00 in - - ()
Sea Level Pressure  
Sea Level Pressure 29.83 in    
Wind  
Wind Speed 12 mph (WNW)    
Max Wind Speed 23 mph    
Max Gust Speed 31 mph    
Visibility 8 miles    
Events Rain , Snow    
Averages and records for this station are not official NWS values.
T = Trace of Precipitation, MM = Missing Value Source: NWS Daily Summary

Daily Weather History Graph

Daily Weather History Graph

Search for Another Location

Airport:

Trip Planner

Search our weather history database for the weather conditions in past years. The results will help you decide how hot, cold, wet, or windy it might be!

Date:

Astronomy

Mar. 08, 2012 Rise Set
Actual Time 7:07 AM EST 6:38 PM EST
Civil Twilight 6:37 AM EST 7:08 PM EST
Nautical Twilight 6:02 AM EST 7:43 PM EST
Astronomical Twilight 5:27 AM EST 8:18 PM EST
Moon 7:31 PM EST (3/8) 6:46 AM EST (3/8)
Length of Visible Light 12h 31m
Length of Day
11h 31m
Full, 100% of the Moon is Illuminated
Mar 8
Full
Mar 14
Last Quarter
Mar 22
New
Mar 30
First Quarter
Apr 6
Full

Hourly Weather History & Observations

Time (EST) Temp. Windchill Dew Point Humidity Pressure Visibility Wind Dir Wind Speed Gust Speed Precip Events Conditions
12:35 AM 35.6 °F 29.2 °F 33.8 °F 93% 29.63 in 3.0 mi WNW 8.1 mph - N/A Snow Light Snow
12:51 AM 35.6 °F 28.6 °F 33.8 °F 93% 29.63 in 4.0 mi NW 9.2 mph - N/A Rain Light Rain
1:14 AM 35.6 °F 28.6 °F 33.8 °F 93% 29.63 in 2.5 mi WNW 9.2 mph - N/A Snow Light Snow
1:34 AM 35.6 °F 27.5 °F 33.8 °F 93% 29.65 in 2.5 mi WNW 11.5 mph 18.4 mph N/A Snow Light Snow
2:14 AM 33.8 °F 24.8 °F 32.0 °F 93% 29.65 in 5.0 mi NW 12.7 mph 20.7 mph N/A Snow Light Snow
2:55 AM 32.0 °F 23.6 °F 30.2 °F 93% 29.66 in 10.0 mi WNW 10.4 mph - N/A   Overcast
3:34 AM 30.2 °F 19.8 °F 30.2 °F 100% 29.67 in 10.0 mi WNW 13.8 mph 18.4 mph N/A   Overcast
3:55 AM 30.2 °F 20.2 °F 28.4 °F 93% 29.68 in 10.0 mi WNW 12.7 mph 20.7 mph N/A   Overcast
4:14 AM 30.2 °F 19.8 °F 28.4 °F 93% 29.69 in 10.0 mi NW 13.8 mph 21.9 mph N/A   Overcast
4:35 AM 30.2 °F 20.8 °F 28.4 °F 93% 29.70 in 7.0 mi WNW 11.5 mph 18.4 mph N/A   Overcast
4:55 AM 30.2 °F 18.9 °F 28.4 °F 93% 29.70 in 10.0 mi WNW 16.1 mph 23.0 mph N/A   Overcast
5:14 AM 30.2 °F 21.9 °F 26.6 °F 86% 29.71 in 10.0 mi WNW 9.2 mph 18.4 mph N/A   Overcast
5:35 AM 28.4 °F 19.1 °F 26.6 °F 93% 29.71 in 10.0 mi WNW 10.4 mph 18.4 mph N/A Snow Light Snow
5:55 AM 28.4 °F 19.1 °F 24.8 °F 86% 29.72 in 10.0 mi WNW 10.4 mph 21.9 mph N/A   Overcast
6:14 AM 28.4 °F 16.2 °F 24.8 °F 86% 29.72 in 10.0 mi WNW 17.3 mph 23.0 mph N/A   Overcast
6:35 AM 26.6 °F 13.8 °F 24.8 °F 93% 29.74 in 10.0 mi WNW 17.3 mph 24.2 mph N/A   Overcast
6:54 AM 26.6 °F 14.7 °F 24.8 °F 93% 29.75 in 10.0 mi WNW 15.0 mph 26.5 mph N/A   Overcast
7:14 AM 26.6 °F 13.8 °F 23.0 °F 86% 29.76 in 10.0 mi WNW 17.3 mph 24.2 mph N/A   Overcast
7:35 AM 26.6 °F 13.1 °F 21.2 °F 80% 29.79 in 10.0 mi WNW 19.6 mph 27.6 mph N/A   Overcast
7:54 AM 24.8 °F 11.1 °F 21.2 °F 86% 29.80 in 10.0 mi West 18.4 mph 26.5 mph N/A   Overcast
8:15 AM 24.8 °F 11.5 °F 21.2 °F 86% 29.81 in 10.0 mi WNW 17.3 mph 24.2 mph N/A   Overcast
8:34 AM 24.8 °F 9.6 °F 21.2 °F 86% 29.83 in 10.0 mi WNW 23.0 mph 29.9 mph N/A   Overcast
8:55 AM 24.8 °F 10.3 °F 21.2 °F 86% 29.83 in 10.0 mi WNW 20.7 mph 31.1 mph N/A   Overcast
9:14 AM 24.8 °F 11.5 °F 21.2 °F 86% 29.83 in 10.0 mi WNW 17.3 mph 27.6 mph N/A   Overcast
9:34 AM 24.8 °F 11.5 °F 21.2 °F 86% 29.84 in 7.0 mi WNW 17.3 mph 26.5 mph N/A Snow Light Snow
9:54 AM 24.8 °F 11.5 °F 19.4 °F 80% 29.84 in 7.0 mi WNW 17.3 mph 26.5 mph N/A Snow Light Snow
10:14 AM 24.8 °F 10.7 °F 19.4 °F 80% 29.85 in 7.0 mi NW 19.6 mph 28.8 mph N/A Snow Light Snow
10:35 AM 24.8 °F 11.5 °F 19.4 °F 80% 29.85 in 5.0 mi WNW 17.3 mph 26.5 mph N/A Snow Light Snow
10:54 AM 26.6 °F 15.7 °F 21.2 °F 80% 29.86 in 4.0 mi NW 12.7 mph 19.6 mph N/A Snow Light Snow
11:15 AM 26.6 °F 14.7 °F 21.2 °F 80% 29.88 in 4.0 mi WNW 15.0 mph 20.7 mph N/A Snow Light Snow
11:34 AM 26.6 °F 13.8 °F 21.2 °F 80% 29.88 in 4.0 mi NW 17.3 mph 27.6 mph N/A Snow Light Snow
11:54 AM 26.6 °F 13.4 °F 19.4 °F 74% 29.88 in 7.0 mi NW 18.4 mph 24.2 mph N/A Snow Light Snow
12:15 PM 26.6 °F 14.3 °F 21.2 °F 80% 29.89 in 4.0 mi NW 16.1 mph 24.2 mph N/A Snow Light Snow
12:34 PM 26.6 °F 15.2 °F 21.2 °F 80% 29.89 in 4.0 mi WNW 13.8 mph 20.7 mph N/A Snow Light Snow
12:54 PM 26.6 °F 15.2 °F 21.2 °F 80% 29.91 in 5.0 mi NW 13.8 mph 24.2 mph N/A Snow Light Snow
1:15 PM 26.6 °F 13.8 °F 19.4 °F 74% 29.92 in 10.0 mi WNW 17.3 mph 25.3 mph N/A Snow Light Snow
1:34 PM 26.6 °F 15.2 °F 19.4 °F 74% 29.92 in 10.0 mi WNW 13.8 mph 26.5 mph N/A Snow Light Snow
1:55 PM 26.6 °F 14.3 °F 19.4 °F 74% 29.93 in 7.0 mi WNW 16.1 mph 24.2 mph N/A Snow Light Snow
2:14 PM 26.6 °F 15.7 °F 21.2 °F 80% 29.93 in 10.0 mi WNW 12.7 mph - N/A Snow Light Snow
2:34 PM 26.6 °F 15.7 °F 21.2 °F 80% 29.94 in 10.0 mi WNW 12.7 mph 18.4 mph N/A   Overcast
3:14 PM 28.4 °F 19.1 °F 19.4 °F 69% 29.94 in 10.0 mi WNW 10.4 mph 16.1 mph N/A   Overcast
3:34 PM 26.6 °F 16.2 °F 19.4 °F 74% 29.95 in 10.0 mi WNW 11.5 mph 18.4 mph N/A Snow Light Snow
3:55 PM 26.6 °F 16.8 °F 19.4 °F 74% 29.94 in 10.0 mi WNW 10.4 mph 16.1 mph N/A   Overcast
4:14 PM 28.4 °F 19.1 °F 19.4 °F 69% 29.94 in 10.0 mi NW 10.4 mph 18.4 mph N/A   Overcast
4:34 PM 28.4 °F 20.4 °F 19.4 °F 69% 29.95 in 10.0 mi WNW 8.1 mph - N/A   Overcast
4:55 PM 28.4 °F 19.7 °F 19.4 °F 69% 29.96 in 10.0 mi West 9.2 mph - N/A   Overcast
5:14 PM 28.4 °F 19.7 °F 19.4 °F 69% 29.96 in 10.0 mi West 9.2 mph - N/A   Mostly Cloudy
5:34 PM 28.4 °F 20.4 °F 19.4 °F 69% 29.97 in 10.0 mi West 8.1 mph - N/A   Overcast
5:55 PM 28.4 °F 23.3 °F 17.6 °F 64% 29.97 in 10.0 mi West 4.6 mph - N/A   Overcast
6:14 PM 28.4 °F 23.3 °F 17.6 °F 64% 29.97 in 10.0 mi West 4.6 mph - N/A   Scattered Clouds
6:35 PM 26.6 °F - 17.6 °F 69% 29.97 in 10.0 mi Calm Calm - N/A   Clear
6:54 PM 26.6 °F - 17.6 °F 69% 29.98 in 10.0 mi Calm Calm - N/A   Clear
7:14 PM 26.6 °F - 17.6 °F 69% 29.99 in 10.0 mi Calm Calm - N/A   Scattered Clouds
7:35 PM 24.8 °F - 17.6 °F 74% 29.99 in 10.0 mi Calm Calm - N/A   Scattered Clouds
7:54 PM 21.2 °F - 17.6 °F 86% 29.99 in 10.0 mi Calm Calm - N/A   Mostly Cloudy
8:14 PM 21.2 °F - 17.6 °F 86% 29.99 in 10.0 mi Calm Calm - N/A   Overcast
8:34 PM 21.2 °F - 17.6 °F 86% 29.98 in 10.0 mi Calm Calm - N/A   Overcast
8:54 PM 19.4 °F 14.3 °F 17.6 °F 93% 29.98 in 10.0 mi SSE 3.5 mph - N/A   Mostly Cloudy
9:15 PM 21.2 °F 16.4 °F 17.6 °F 86% 29.98 in 10.0 mi SSE 3.5 mph - N/A   Overcast
9:34 PM 23.0 °F 18.4 °F 17.6 °F 80% 29.97 in 10.0 mi SSE 3.5 mph - N/A   Overcast
9:55 PM 24.8 °F 20.5 °F 17.6 °F 74% 29.96 in 10.0 mi SSE 3.5 mph - N/A   Overcast
10:14 PM 24.8 °F 16.9 °F 17.6 °F 74% 29.96 in 10.0 mi SSE 6.9 mph - N/A   Overcast
10:34 PM 24.8 °F 16.9 °F 19.4 °F 80% 29.95 in 10.0 mi SSE 6.9 mph - N/A   Overcast
10:55 PM 24.8 °F 16.1 °F 19.4 °F 80% 29.94 in 10.0 mi SSE 8.1 mph - N/A   Overcast
11:14 PM 24.8 °F 16.9 °F 19.4 °F 80% 29.94 in 10.0 mi SSE 6.9 mph - N/A   Overcast
11:34 PM 24.8 °F 17.9 °F 19.4 °F 80% 29.93 in 10.0 mi South 5.8 mph - N/A   Overcast
11:54 PM 24.8 °F 17.9 °F 21.2 °F 86% 29.93 in 10.0 mi South 5.8 mph - N/A   Overcast